Home > Weather > Urbana > Past weeks

Flag for USA Past Weather in Urbana, Illinois, USA — Yesterday and Last 2 Weeks

Now
78 °F

Scattered clouds.


Feels Like: 79 °F
Forecast: 60 / 79 °F
Wind: 14 mph from North

Location: University Of Illinois-Willard Airport

Current Time: Jun 28, 2016 at 5:37:55 PM

Latest Report: Jun 28, 2016 at 4:53 PM


Visibility: 10 mi

Pressure: 30.09 "Hg

Humidity: 50%

Dew Point: 58 °F

Location of UrbanaLocation

Past Weather in Urbana — Graph

°F

Urbana Temperature Yesterday

Maximum temperature yesterday: 89 °F (at 3:53 PM)
Minimum temperature yesterday: 68 °F (at 5:04 AM)
Average temperature yesterday: 78 °F

High & Low Weather Summary for the Past Weeks

 TemperatureHumidityPressure
High92 °F (Jun 20, 1:53 PM)97% (Jun 22, 7:00 AM)30.24 "Hg (Jun 22, 7:00 AM)
Low63 °F (Jun 17, 4:53 AM)32% (Jun 18, 5:53 PM)29.74 "Hg (Jun 15, 4:53 PM)
Average77 °F71%29.99 "Hg
* Reported Jun 13 3:53 PM — Jun 28 3:53 PM, Urbana, Weather by CustomWeather, © 2016

Note: Actual official high and low records may vary slightly from our data, if they occured in-between our weather recording intervals... More about our weather records

Advertising

Urbana Weather History for the Previous 24 Hours

Scroll right to see more
 ConditionsComfort  
Time TempWeatherWind HumidityBarometerVisibility
3:53 PM
Tue, Jun 28
78 °FScattered clouds.12 mph56%30.10 "Hg10 mi
2:53 PM78 °FPartly sunny.12 mph56%30.11 "Hg10 mi
1:53 PM77 °FScattered clouds.12 mph58%30.12 "Hg10 mi
12:53 PM76 °FPartly sunny.7 mph62%30.12 "Hg10 mi
11:53 AM77 °FBroken clouds.8 mph62%30.12 "Hg10 mi
10:53 AM75 °FPartly sunny.6 mph64%30.12 "Hg10 mi
9:53 AM75 °FScattered clouds.9 mph66%30.13 "Hg10 mi
8:53 AM73 °FSunny.9 mph66%30.11 "Hg10 mi
7:53 AM71 °FSunny.9 mph68%30.11 "Hg10 mi
6:53 AM69 °FSunny.9 mph73%30.09 "Hg10 mi
5:53 AM63 °FClear.7 mph87%30.09 "Hg10 mi
4:53 AM64 °FClear.No wind90%30.08 "Hg10 mi
3:53 AM64 °FClear.No wind94%30.06 "Hg10 mi
2:53 AM67 °FClear.7 mph85%30.05 "Hg10 mi
1:53 AM69 °FClear.8 mph81%30.04 "Hg10 mi
12:53 AM67 °FClear.No wind87%30.05 "Hg10 mi
11:53 PM
Mon, Jun 27
69 °FClear.6 mph84%30.05 "Hg10 mi
10:53 PM71 °FClear.6 mph81%30.05 "Hg10 mi
9:53 PM71 °FClear.8 mph81%30.05 "Hg10 mi
8:53 PM74 °FSunny.5 mph76%30.03 "Hg10 mi
7:53 PM79 °FSunny.6 mph69%30.03 "Hg10 mi
6:53 PM85 °FSunny.7 mph55%30.04 "Hg10 mi
5:53 PM87 °FSunny.14 mph48%30.02 "Hg10 mi
Weather by CustomWeather, © 2016

See weather overviewHow to use our weather pages